Regional Weather Roundup
Issued by NWS

Home | Current Version | Previous Version | Graphics & Text | Print | Product List | Glossary On
Versions: 1 2 3 4 5 6 7 8 9 10 11 12 13 14 15 16 17 18 19 20 21 22 23 24 25 26 27 28 29 30 31 32 33 34 35 36 37 38 39 40 41 42 43 44 45 46 47 48 49 50
000
ASUS43 KBIS 282020
RWRND

NORTH DAKOTA REGIONAL WEATHER ROUNDUP
NATIONAL WEATHER SERVICE BISMARCK ND
200 PM CST SUN DEC 28 2014

NOTE: "FAIR" INDICATES FEW OR NO CLOUDS BELOW 12,000 FEET WITH NO
SIGNIFICANT WEATHER AND/OR OBSTRUCTIONS TO VISIBILITY.


NDZ001>003-009>011-017-282100-
NORTHWEST NORTH DAKOTA

CITY           SKY/WX    TMP DP  RH WIND       PRES   REMARKS
WILLISTON      CLOUDY    11   2  67 NE9       30.19R WCI  -2
MINOT          CLOUDY     2  -3  80 N8        30.25R WCI -12
MINOT AFB      CLOUDY     0  -2  90 NE7       30.26R WCI -13
$$

NDZ018>021-031>035-040>046-282100-
SOUTHWEST NORTH DAKOTA

CITY           SKY/WX    TMP DP  RH WIND       PRES   REMARKS
BISMARCK       LGT SNOW  10   5  80 NE10      30.20R WCI  -4
DICKINSON      LGT SNOW  17  12  80 E15       30.04S WCI   2
GARRISON         N/A      8   2  76 NE8       30.20R WCI  -4
HETTINGER ARPT CLOUDY    20  16  84 E9        30.03S WCI   9
$$

NDZ004>008-012>016-024-026-027-054-282100-
NORTHEAST NORTH DAKOTA

CITY           SKY/WX    TMP DP  RH WIND       PRES   REMARKS
GRAND FORKS    SUNNY      0  -8  69 N10       30.35R WCI -16
GRND FRKS AFB  SUNNY      0  -7  71 N9        30.35R WCI -15
DEVILS LAKE    SUNNY     -2 -11  65 N10       30.27S WCI -19
$$

NDZ022-023-025-028>030-036>039-047>053-282100-
SOUTHEAST NORTH DAKOTA

CITY           SKY/WX    TMP DP  RH WIND       PRES   REMARKS
FARGO          SUNNY      6  -4  63 N15       30.30R WCI -12
JAMESTOWN      PTSUNNY    3  -5  69 NE8       30.24S WCI -10
$$



USA.gov is the U.S. government's official web portal to all federal, state and local government web resources and services.